Regional Weather Roundup
Issued by NWS

Home | Current Version | Previous Version | Graphics & Text | Print | Product List | Glossary On
Versions: 1 2 3 4 5 6 7 8 9 10 11 12 13 14 15 16 17 18 19 20 21 22 23 24 25 26 27 28 29 30 31 32 33 34 35 36 37 38 39 40 41 42 43 44 45 46 47 48 49 50
000
ASUS43 KIND 051759
RWRIN

WEATHER ROUNDUP FOR INDIANA
NATIONAL WEATHER SERVICE INDIANAPOLIS IN
100 PM EST THU MAR 05 2015

NOTE: "FAIR" INDICATES FEW OR NO CLOUDS BELOW 12,000 FEET WITH NO
SIGNIFICANT WEATHER AND/OR OBSTRUCTIONS TO VISIBILITY.

* - STATION DOES NOT REPORT WEATHER SUCH AS PRECIPITATION OR FOG.

+ - STATION NOT QUALITY CONTROLLED BY THE NATIONAL WEATHER SERVICE.
    USE DATA WITH CAUTION...ESPECIALLY DEWPOINT AND RELATIVE
    HUMIDITY OBSERVATIONS.

INZ001>003-010>013-019-020-051900-
NORTHWEST INDIANA

CITY           SKY/WX    TMP DP  RH WIND       PRES   REMARKS
GARY /AIRPORT/ MOSUNNY   19  -6  32 W14       30.48R WCI   6
KNOX *+          N/A     19 -13  23 W13       30.44R WCI   7
MONTICELLO +   FAIR      19   9  65 NW8       30.45  WCI   9
6HR MIN TEMP:   8; 6HR MAX TEMP:  19;

VALPARAISO     NOT AVBL

$$

LMZ046-743>745-051900-
SOUTHERN LAKE MICHIGAN

STATION/POSITION TIME  TEMP WIND        PRES
                       AIR  DIR/SP/G
                 (UTC) (F)  (DEG/KT/KT) (MB)
MICHIGAN CITY    1700   18  290/ 16/ 19   N/A

$$

INZ004-005-014>016-021>024-051900-
NORTH CENTRAL INDIANA

CITY           SKY/WX    TMP DP  RH WIND       PRES   REMARKS
ELKHART        PTSUNNY   19   1  45 CALM      30.43R
GOSHEN         CLOUDY    17   5  59 NW5       30.41S WCI  10
6HR MIN TEMP:   5; 6HR MAX TEMP:  19;

SOUTH BEND     FLURRIES  19   8  62 CALM      30.43R
6HR MIN TEMP:  10; 6HR MAX TEMP:  20; 6HR PCP: TRACE;

WARSAW +       FAIR      19   5  53 W8        30.42S WCI   9

$$

INZ006>009-017-018-025>027-051900-
NORTHEAST INDIANA

CITY           SKY/WX    TMP DP  RH WIND       PRES   REMARKS
ANGOLA *+      SUNNY     16   0  48 N8        30.39R WCI   5
FORT WAYNE     FAIR      19   3  49 NW9       30.41R WCI   8
6HR MIN TEMP:  12; 6HR MAX TEMP:  20;


$$

INZ028-029-035-036-043>045-051>053-051900-
WEST CENTRAL INDIANA

CITY           SKY/WX    TMP DP  RH WIND       PRES   REMARKS
CRAWFORDSVL +  FAIR      17   2  52 NW8       30.45S WCI   7
6HR MIN TEMP:   9; 6HR MAX TEMP:  17;

GREENCASTLE +  FAIR      21   3  45 N7        30.44R WCI  13
LAFAYETTE      PTSUNNY   18   6  59 N9        30.47R WCI   7
6HR MIN TEMP:   7; 6HR MAX TEMP:  18;

TERRE HAUTE    FAIR      19   6  57 NW9       30.48R WCI   8
6HR MIN TEMP:  12; 6HR MAX TEMP:  20;


$$

INZ030>032-037>040-046>048-054>057-064-065-051900-
CENTRAL INDIANA

CITY           SKY/WX    TMP DP  RH WIND       PRES   REMARKS
CP ATTERBURY + PTSUNNY   25  10  54 N6        30.42S WCI  18
COLUMBUS       MOSUNNY   21   7  53 N8        30.42R WCI  12
FRANKFORT +    FAIR      22   9  58 W5        30.45R WCI  16
6HR MIN TEMP:  12; 6HR MAX TEMP:  22;

GREENWOOD *+   PTSUNNY   21   3  45 N6        30.41R WCI  14
INDIANAPOLIS   FAIR      22   7  52 NW8       30.41R WCI  12
6HR MIN TEMP:  16; 6HR MAX TEMP:  22;

-EAGLE CREEK   FAIR      21   8  57 NW12      30.41R WCI   9
6HR MIN TEMP:  15; 6HR MAX TEMP:  21;

KOKOMO *+      FAIR      21  10  63 N7        30.42S WCI  13
MT COMFORT *+  FAIR      23   0  36 N9        30.41S WCI  13
SHELBYVILLE    CLOUDY    23   8  52 N6        30.41R WCI  16
6HR MIN TEMP:  19; 6HR MAX TEMP:  24;

ZIONSVILLE +   FAIR      20   5  51 N5        30.42S WCI  14
6HR MIN TEMP:  14; 6HR MAX TEMP:  21;


$$

INZ033-034-041-042-049-050-058-059-051900-
EAST CENTRAL INDIANA

CITY           SKY/WX    TMP DP  RH WIND       PRES   REMARKS
MUNCIE         FAIR      19   4  51 N10       30.40R WCI   7
6HR MIN TEMP:  15; 6HR MAX TEMP:  20;


$$

INZ060-061-067>069-081>083-085>088-051900-
SOUTHWEST INDIANA

CITY           SKY/WX    TMP DP  RH WIND       PRES   REMARKS
EVANSVILLE     FAIR      23   7  50 NW14      30.50R WCI  11
6HR MIN TEMP:  19; 6HR MAX TEMP:  24;

HUNTINGBURG *+ FAIR      21   9  58 NW10      30.47R WCI  10
6HR MIN TEMP:  18; 6HR MAX TEMP:  21;


$$

INZ062-063-066-070>080-084-089>092-051900-
SOUTH CENTRAL AND SOUTHEAST INDIANA

CITY           SKY/WX    TMP DP  RH WIND       PRES   REMARKS
BLOOMINGTON    FAIR      23   6  48 VRB5      30.42R WCI  17
6HR MIN TEMP:  16; 6HR MAX TEMP:  23;

SEYMOUR +      PTSUNNY   25   9  50 N8        30.42R WCI  16

$$




USA.gov is the U.S. government's official web portal to all federal, state and local government web resources and services.